Regional Weather Roundup
Issued by NWS

Home | Current Version | Previous Version | Text Only | Print | Product List | Glossary Off
Versions: 1 2 3 4 5 6 7 8 9 10 11 12 13 14 15 16 17 18 19 20 21 22 23 24 25 26 27 28 29 30 31 32 33 34 35 36 37 38 39 40 41 42 43 44 45 46 47 48 49 50

000
ASUS43 KMKX 310600
RWRWI

WISCONSIN REGIONAL WEATHER ROUNDUP
NATIONAL WEATHER SERVICE MILWAUKEE/SULLIVAN WI
100 AM CDT SUN JUL 31 2016

NOTE: "FAIR" INDICATES FEW OR NO CLOUDS BELOW 12,000 FEET WITH NO
SIGNIFICANT WEATHER AND/OR OBSTRUCTIONS TO VISIBILITY.

WIZ001-002-006>008-014>016-023>028-310700-
NORTHWEST WISCONSIN

CITY           SKY/WX    TMP DP  RH WIND       PRES   REMARKS
SUPERIOR ARPT  MOCLDY    63  62  97 NE3       30.03S
ASHLAND        PTCLDY    56  56 100 S3        30.04S
6HR MIN TEMP:  55; 6HR MAX TEMP:  73;

HAYWARD        MOCLDY    62  59  90 CALM      30.05R
6HR MIN TEMP:  60; 6HR MAX TEMP:  77;

SIREN          CLEAR     63  61  94 CALM      30.03R
CUMBERLAND     CLEAR     63  59  88 CALM      30.05R
RICE LAKE      CLEAR     66  61  85 SE6       30.06R
CHETEK         CLEAR     65  62  90 MISG      30.04S
LADYSMITH      MOCLDY    65  60  84 E3        30.08R
EAU CLAIRE     NOT AVBL
MENOMONIE      CLEAR     65  60  86 E3        30.03S
6HR MIN TEMP:  65; 6HR MAX TEMP:  80;

NEW RICHMOND   CLEAR     65  63  93 SE3       30.03R
OSCEOLA        CLEAR     65  65 100 CALM      30.04S
$$

WIZ003>005-009-010-017-018-310700-
NORTH CENTRAL WISCONSIN

CITY           SKY/WX    TMP DP  RH WIND       PRES   REMARKS
MANITOWISH WTR CLEAR     55  55 100 CALM      30.09S
ARBOR VITAE    CLEAR     60  54  82 CALM      30.10R
WOODRUFF       CLEAR     60  54  82 CALM      30.10R
RHINELANDER    CLEAR     56  52  86 CALM      30.10S
6HR MIN TEMP:  53; 6HR MAX TEMP:  74;

EAGLE RIVER    CLEAR     55  54  98 CALM      30.09S
LAND O LAKES   CLEAR     53  52  97 CALM      30.11S FOG
PHILLIPS       CLEAR     62  57  84 SE3       30.08S
6HR MIN TEMP:  62; 6HR MAX TEMP:  75;

TOMAHAWK       CLEAR     53  52  95 CALM      30.09S
6HR MIN TEMP:  53; 6HR MAX TEMP:  74;

MEDFORD        PTCLDY    60  54  80 SE5       30.08S
MERRILL        CLEAR     54  54 100 CALM      30.09S
6HR MIN TEMP:  54; 6HR MAX TEMP:  73;

$$

WIZ029-030-035-036-043>047-310700-
CENTRAL WISCONSIN

CITY           SKY/WX    TMP DP  RH WIND       PRES   REMARKS
WAUSAU         CLEAR     59  53  80 CALM      30.06F
6HR MIN TEMP:  59; 6HR MAX TEMP:  74;

MOSINEE        CLEAR     61  52  72 CALM      30.08F
MARSHFIELD     CLEAR     62  54  74 E3        30.06F
6HR MIN TEMP:  62; 6HR MAX TEMP:  76;

STEVENS POINT  CLEAR     56  55  96 CALM      30.07S
WAUPACA        CLEAR     59  58  97 CALM      30.06S
WAUTOMA        CLEAR     57  56  96 CALM      30.06S
6HR MIN TEMP:  57; 6HR MAX TEMP:  75;

WISC RAPIDS    PTCLDY    58  52  80 CALM      30.07S
6HR MIN TEMP:  57; 6HR MAX TEMP:  76;

CAMP DOUGLAS   CLEAR     57  57 100 CALM      30.05S
$$

WIZ011>013-019>022-031-037>040-048>050-310700-
NORTHEAST WISCONSIN

CITY           SKY/WX    TMP DP  RH WIND       PRES   REMARKS
ANTIGO         CLEAR     52  51  95 CALM      30.09S
SHAWANO        CLEAR     58  56  90 CALM      30.06F
OCONTO         PTCLDY   N/A N/A N/A CALM      30.04F
STURGEON BAY   CLEAR     66  59  78 N5        30.04F
6HR MIN TEMP:  65; 6HR MAX TEMP:  74;

GREEN BAY      CLEAR     57  57 100 CALM      30.04F
6HR MIN TEMP:  57; 6HR MAX TEMP:  73;

MANITOWOC      NOT AVBL
APPLETON       CLEAR     61  52  72 N6        30.03F
CLINTONVILLE   CLEAR     55  54  94 CALM      30.06S
OSHKOSH        CLEAR     60  55  83 W3        30.04S
6HR MIN TEMP:  60; 6HR MAX TEMP:  75;

$$

WIZ032>034-041-042-053>061-310700-
SOUTHWEST WISCONSIN

CITY           SKY/WX    TMP DP  RH WIND       PRES   REMARKS
LA CROSSE      CLEAR     69  63  81 E5        30.03R
6HR MIN TEMP:  68; 6HR MAX TEMP:  80;

SPARTA         PTCLDY    61  60  97 CALM      30.05S
VIROQUA        CLEAR     63  60  91 CALM      30.06R
6HR MIN TEMP:  63; 6HR MAX TEMP:  77;

BOSCOBEL       FOG       62  61  96 CALM      30.04S VSB 1/2
6HR MIN TEMP:  62; 6HR MAX TEMP:  80;

PRAIRIE DU CHI   N/A     65  63  92 CALM      30.03R
PLATTEVILLE    CLEAR     64  61  92 E5        30.05R
6HR MIN TEMP:  64; 6HR MAX TEMP:  78;

$$

WIZ056-057-062-063-064-067-068-310700-
SOUTH CENTRAL WISCONSIN

CITY           SKY/WX    TMP DP  RH WIND       PRES   REMARKS
REEDSBURG      CLEAR     61  60  98 CALM      30.04S
6HR MIN TEMP:  60; 6HR MAX TEMP:  76;

BARABOO/DELLS  CLEAR     61  56  85 E5        30.05S
LONE ROCK      NOT AVBL
MINERAL POINT  CLEAR     64  59  82 E6        30.05S
MADISON        CLEAR     59  57  93 CALM      30.03F
6HR MIN TEMP:  59; 6HR MAX TEMP:  76;

MIDDLETON      CLEAR     60  58  94 W3        30.05S
WATERTOWN      CLEAR     59  59  99 CALM      30.03S
6HR MIN TEMP:  58; 6HR MAX TEMP:  74;

MONROE         CLEAR     63  61  94 E5        30.04S
JANESVILLE     CLEAR     63  61  94 CALM      30.03S
$$

WIZ051-052-058>065-066-070>072-310700-
SOUTHEAST WISCONSIN

CITY           SKY/WX    TMP DP  RH WIND       PRES   REMARKS
MILWAUKEE      PTCLDY    68  65  90 N6        30.02S
6HR MIN TEMP:  68; 6HR MAX TEMP:  72;

WAUKESHA       CLEAR     61  55  82 CALM      30.04S
MILWAUKEE/TIMM CLEAR     63  57  82 N3        30.03S
RACINE         MOCLDY    66  64  93 N5        30.03S
6HR MIN TEMP:  65; 6HR MAX TEMP:  71;

BURLINGTON     CLEAR     58  57  97 CALM      30.02S
KENOSHA        PTCLDY    64  62  93 N5        30.02S
6HR MIN TEMP:  64; 6HR MAX TEMP:  71;

FOND DU LAC    CLEAR     58  56  93 CALM      30.04S
6HR MIN TEMP:  58; 6HR MAX TEMP:  75;

SHEBOYGAN      CLEAR     58  55  90 CALM      30.03S
6HR MIN TEMP:  58; 6HR MAX TEMP:  70;

WEST BEND      CLEAR     59  55  88 CALM      30.04S
JUNEAU         CLEAR     58  56  95 CALM      30.05S
$$

LSZ147-162-310700-
LAKE SUPERIOR

STATION/POSITION TIME  TEMP    WIND        PRES    WAVE
                       AIR SEA DIR/SP/G            HT/PER
                 (UTC) (F)     (DEG/KT/KT) (MB)    (FT/S)
W MID LAKE BUOY  0450   65 63  120/  8/ 10 1016.6R   0
DEVILS ISLAND    0500   67      50/  7/  8 1016.8F
PORT WING        0500   61      CALM  /  1 1016.9
SAXON HARBOR     0500   62     170/  2/  4 1016.6S
$$

LMZ867-665-643>646-310700-
LAKE MICHIGAN

STATION/POSITION TIME  TEMP    WIND        PRES    WAVE
                       AIR SEA DIR/SP/G            HT/PER
                 (UTC) (F)     (DEG/KT/KT) (MB)    (FT/S)
CHAMBERS ISLAND  0500   71      40/  9/ 11 1017.6S
S GREEN BAY BUOY 0500   71 71   30/  8/ 10 1016.9F
N MID LAKE BUOY  0450   71 70  100/ 12/ 14 1016.7S   2/ 4
NORTHPORT PIER   0500   70      50/  6/  8 1017.3F
SISTER BAY       0521   65        CALM       N/A
ALGOMA LAKESHORE 0543          320/  8/  9   N/A
KEWAUNEE LAKESHO 0500   62     300/  3/  5 1016.6F
SHEBOYGAN LAKESH 0500   67     340/  8/  9 1017.0F
PORT WASHINGTON  0500   66     330/  4/  6 1017.3
ATWATER BUOY     0500   66 65  360/  8/ 10 1018.1F
MILWAUKEE LAKESH 0510   68     350/  7/  9   N/A
S MID LAKE BUOY  0450   71 73   80/ 10/ 10 1015.6R   2/ 5
KENOSHA   LAKESH 0500   72      80/  9/ 10 1015.9F
$$

TC  - TEMPERATURE IN CELSIUS
VSB - VISIBILITY IN STATUTE MILES
WCI - WIND CHILL INDEX
HX  - HEAT INDEX




USA.gov is the U.S. government's official web portal to all federal, state and local government web resources and services.